Weather in Chuvashskiy Suskan

Russia / Ulyanovsk Oblast     53°52′56″N   49°12′21″E
temp.,
°C
wind,
m/s
gust,
m/s
humid.,
%
clouds,
%
prec.,
mm/h
press.,
hPa
HPBL,
m
4 august, wed
wed401:00+21s227299 0.0 101118
04:00+21wnw2275100 0.0 101122
07:00+21nnw2375100 0.0 101169
10:00+24wnw3463100 0.0 1012347
13:00+26nw565799 0.0 1011539
16:00+27wnw5552100 0.0 1011676
19:00+24nnw6862100 0.0 1011270
22:00+20nnw58805 0.0 1013211
5 august, thu
thu501:00+18n510820 0.0 1013276
04:00+17n4885100 0.0 1014192
07:00+18n467816 0.0 1014242
10:00+23nnw465579 0.0 1014703
13:00+25nnw674047 0.0 10141235
16:00+25nnw783715 0.0 10151201
19:00+24nnw79415 0.0 1015623
22:00+19n46615 0.0 101698
6 august, fri
fri601:00+17nnw476473 0.0 1017138
04:00+16nnw34678 0.0 1017103
07:00+18n346599 0.0 1018173
10:00+22nne235395 0.0 1018595
13:00+24w334189 0.0 10181022
16:00+26nw343730 0.0 1016986
19:00+24n464137 0.0 1017206
22:00+20nne34546 0.0 101744
7 august, sat
sat701:00+18ne345697 0.0 101774
04:00+17e34565 0.0 101899
07:00+19se335118 0.0 1018127
10:00+22ssw23425 0.0 1018354
13:00+24wsw223834 0.0 1017625
16:00+26s113895 0.0 1017647
19:00+25s0144100 0.0 101615
22:00+23ene3346100 0.0 101620
8 august, sun
sun801:00+21ene33552 0.0 101724
04:00+20se335759 0.0 101724
07:00+21se235492 0.0 101858
10:00+25ssw244473 0.0 1018304
13:00+27wsw233835 0.0 1016789
16:00+29wnw233497 0.0 10151017
19:00+27nne1139100 0.0 101516
22:00+25ne4444100 0.0 101438